EW6903 Weather Reports


time (UTC)temp
C
wind
direction
speed
KPH
gust
KPH
rain 1hr
cm
rain 24hr
cm
rain mn
cm
humidity
%
barometer
mb
20260510141510 22 88 3.2 0.0 0.00 0.00 0.00 96 1016.4
20260510140010 22 81 3.2 0.0 0.00 0.00 0.00 97 1016.4
20260510134507 22 106 3.2 0.0 0.00 0.00 0.00 98 1016.3
20260510133006 21 106 3.2 0.0 0.00 0.00 0.00 98 1016.2
20260510131503 21 134 4.8 0.0 0.00 0.00 0.00 99 1016.0
20260510130124 21 138 4.8 0.0 0.00 0.00 0.00 99 1015.7
20260510124603 21 164 3.2 0.0 0.00 0.00 0.00 99 1015.5
20260510123057 20 181 3.2 0.0 0.00 0.00 0.00 99 1015.1
20260510121553 20 181 1.6 0.0 0.00 0.00 0.00 99 1014.9
20260510120053 19 181 0.0 0.0 0.00 0.00 0.00 98 1014.8
20260510114550 19 175 0.0 0.0 0.00 0.00 0.00 98 1014.8
20260510113056 18 175 0.0 0.0 0.00 0.00 0.00 98 1014.5
20260510111545 19 178 0.0 0.0 0.00 0.00 0.00 98 1014.2
20260510110043 18 178 0.0 0.0 0.00 0.00 0.00 98 1013.9
20260510104541 18 178 0.0 0.0 0.00 0.00 0.00 98 1013.5
20260510103042 18 178 0.0 0.0 0.00 0.00 0.00 98 1013.4
20260510101538 18 178 0.0 0.0 0.00 0.00 0.00 98 1013.4
20260510100037 18 178 0.0 0.0 0.00 0.00 0.00 97 1013.2
20260510094538 19 178 0.0 0.0 0.00 0.00 0.00 97 1013.2
20260510093036 18 178 0.0 0.0 0.00 0.00 0.00 97 1013.2
20260510091535 18 178 0.0 0.0 0.00 0.00 0.00 97 1013.3
20260510090038 18 178 0.0 0.0 0.00 0.00 0.00 97 1013.1
20260510084535 18 178 0.0 0.0 0.00 0.00 0.00 97 1013.0
20260510083030 19 178 0.0 0.0 0.00 0.00 0.00 97 1012.9
20260510081529 19 178 0.0 0.0 0.00 0.00 0.00 97 1012.7
20260510080034 19 178 0.0 0.0 0.00 0.00 0.00 97 1012.6
20260510074527 19 178 0.0 0.0 0.00 0.00 0.00 96 1012.5
20260510073029 19 178 0.0 0.0 0.00 0.00 0.00 97 1012.6
20260510071523 19 178 0.0 0.0 0.00 0.00 0.00 97 1012.4
20260510070023 20 178 0.0 0.0 0.00 0.00 0.00 97 1012.4
20260510064538 20 178 0.0 0.0 0.00 0.00 0.00 97 1012.2
20260510063025 20 178 0.0 0.0 0.00 0.00 0.00 97 1012.2
20260510061518 20 178 0.0 0.0 0.00 0.00 0.00 97 1011.7
20260510060017 20 178 1.6 0.0 0.00 0.00 0.00 97 1011.7
20260510054515 20 178 4.8 0.0 0.00 0.00 0.00 98 1011.7
20260510053034 20 180 3.2 0.0 0.00 0.00 0.00 98 1011.8
20260510051512 20 180 3.2 0.0 0.00 0.00 0.00 98 1012.0
20260510050009 20 179 6.4 0.0 0.00 0.00 0.00 98 1012.0
20260510044510 20 156 1.6 0.0 0.00 0.00 2.54 98 1012.7
20260510043009 20 156 1.6 0.0 0.00 0.00 2.54 98 1012.9
20260510041508 20 156 0.0 0.0 0.00 0.00 2.54 98 1013.3
20260510040008 20 155 0.0 0.0 0.00 0.00 2.54 98 1013.2
20260510034508 20 156 0.0 0.0 0.00 0.00 2.54 98 1013.6
20260510033007 20 155 0.0 0.0 0.00 0.00 2.54 98 1014.0
20260510031507 20 155 0.0 0.0 0.00 0.00 2.54 98 1014.2
20260510030006 20 155 0.0 0.0 0.00 0.00 2.54 98 1014.0
20260510024506 20 155 0.0 0.0 0.00 0.00 2.54 98 1013.6
20260510023005 20 156 0.0 0.0 0.00 0.00 2.54 98 1013.5
20260510021505 20 156 0.0 0.0 0.00 0.00 2.54 98 1013.2
20260510020004 20 155 0.0 0.0 0.00 0.00 2.54 98 1013.1
20260510014504 20 155 0.0 0.0 0.00 0.00 2.54 98 1013.0
20260510013004 20 156 1.6 0.0 0.00 0.00 2.54 98 1012.6
20260510011503 20 156 4.8 0.0 0.00 0.00 2.54 98 1012.3
20260510010002 20 153 3.2 0.0 0.00 0.00 2.54 98 1012.3
20260510004504 20 153 0.0 0.0 0.00 0.00 2.54 97 1012.2
20260510003002 20 152 3.2 0.0 0.00 0.00 2.49 97 1012.4
20260510001503 20 123 1.6 0.0 0.00 0.00 2.34 97 1012.6
20260510000000 20 123 0.0 0.0 0.00 0.00 2.16 97 1012.7
20260509234501 20 221 1.6 0.0 0.00 0.00 2.13 97 1012.4
20260509233100 20 228 0.0 0.0 0.00 0.00 2.13 97 1012.5
20260509231623 20 202 0.0 0.0 0.00 0.00 2.13 97 1012.5
20260509230108 20 202 1.6 0.0 0.00 0.00 2.13 97 1012.3
20260509230001 20 203 1.6 0.0 0.00 0.00 2.13 97 1012.3
20260509224559 20 211 0.0 0.0 0.00 0.00 2.06 97 1012.4
20260509223110 20 213 0.0 0.0 0.00 0.00 2.01 97 1012.1
20260509221619 20 216 0.0 0.0 0.00 0.00 1.93 97 1012.1
20260509220100 20 118 0.0 0.0 0.00 0.00 1.91 97 1011.8
20260509214603 20 118 0.0 0.0 0.00 0.00 1.91 97 1012.3
20260509213057 20 118 0.0 0.0 0.00 0.00 1.88 97 1011.8
20260509211606 20 118 1.6 0.0 0.00 0.00 1.88 97 1012.0
20260509210058 20 143 3.2 0.0 0.00 0.00 1.83 97 1011.8
20260509204558 20 105 1.6 0.0 0.00 0.00 1.80 97 1011.8
20260509203055 20 94 0.0 0.0 0.00 0.00 1.80 97 1011.5
20260509201554 20 109 3.2 0.0 0.00 0.00 1.80 97 1011.9
20260509200109 20 108 3.2 0.0 0.00 0.00 1.80 97 1012.1
20260509194556 20 103 3.2 0.0 0.00 0.00 1.80 97 1012.5
20260509193053 20 74 0.0 0.0 0.00 0.00 1.55 97 1013.0
20260509191553 20 118 1.6 0.0 0.00 0.00 1.42 97 1012.8
20260509190054 20 118 0.0 0.0 0.00 0.00 1.37 97 1013.2
20260509184553 20 105 0.0 0.0 0.00 0.00 1.35 97 1013.2
20260509183103 20 106 0.0 0.0 0.00 0.00 1.02 97 1014.2
20260509181551 20 95 4.8 0.0 0.00 0.00 0.94 97 1013.0
20260509180051 20 103 8.0 0.0 0.00 0.00 0.94 97 1013.3
20260509174552 19 107 3.2 0.0 0.00 0.00 0.91 97 1013.4
20260509173057 19 96 4.8 0.0 0.00 0.00 0.86 97 1013.6
20260509171550 19 109 3.2 0.0 0.00 0.00 0.81 97 1013.7
20260509170049 19 105 1.6 0.0 0.00 0.00 0.71 97 1014.1
20260509164547 19 102 1.6 0.0 0.00 0.00 0.71 97 1013.9
20260509163050 20 136 1.6 0.0 0.00 0.00 0.71 96 1014.2
20260509161546 20 103 3.2 0.0 0.00 0.00 0.53 96 1013.6
20260509160044 20 74 3.2 0.0 0.00 0.00 0.23 96 1013.5
20260509154543 20 103 3.2 0.0 0.00 0.00 0.20 96 1013.4
20260509153051 20 94 1.6 0.0 0.00 0.00 0.18 96 1013.8
20260509151544 20 81 0.0 0.0 0.00 0.00 0.13 95 1013.6
20260509150044 20 94 1.6 0.0 0.00 0.00 0.13 96 1013.5
20260509144541 20 46 0.0 0.0 0.00 0.00 0.10 95 1013.2
20260509143049 19 26 0.0 0.0 0.00 0.00 0.08 94 1013.2